This is the latest recevied weather packets stored in our database for station/object DJ5NF-10. If no packets are shown the sender has not sent any weather packets the latest 10 day(s).
| Time | Temp. | Humidity | Pressure | Rain* | Wind** | Luminosity | Snow |
|---|---|---|---|---|---|---|---|
| 1778202692 | 18.89° C | 38% | 1013.3 hPa | - | - | - | - |
| 1778199992 | 19.44° C | 38% | 1013.5 hPa | - | - | - | - |
| 1778197292 | 19.44° C | 38% | 1013.5 hPa | - | - | - | - |
| 1778194592 | 19.44° C | 38% | 1013.5 hPa | - | - | - | - |
| 1778191892 | 20° C | 38% | 1013.5 hPa | - | - | - | - |
| 1778189192 | 20° C | 38% | 1013.3 hPa | - | - | - | - |
| 1778186491 | 20° C | 38% | 1013.1 hPa | - | - | - | - |
| 1778183791 | 20.56° C | 38% | 1012.8 hPa | - | - | - | - |
| 1778181091 | 20.56° C | 38% | 1012.5 hPa | - | - | - | - |
| 1778178391 | 20.56° C | 38% | 1012.2 hPa | - | - | - | - |
| 1778175691 | 20.56° C | 38% | 1011.9 hPa | - | - | - | - |
| 1778172991 | 20.56° C | 38% | 1011.6 hPa | - | - | - | - |
| 1778170291 | 20.56° C | 38% | 1011.5 hPa | - | - | - | - |
| 1778167591 | 20.56° C | 38% | 1011.2 hPa | - | - | - | - |
| 1778164891 | 20.56° C | 38% | 1011.1 hPa | - | - | - | - |
| 1778162191 | 20.56° C | 38% | 1011.3 hPa | - | - | - | - |
| 1778159491 | 20° C | 38% | 1011.4 hPa | - | - | - | - |
| 1778156791 | 20° C | 38% | 1011.2 hPa | - | - | - | - |
| 1778154091 | 19.44° C | 38% | 1011.2 hPa | - | - | - | - |
| 1778151391 | 19.44° C | 38% | 1011.3 hPa | - | - | - | - |
| 1778148690 | 18.89° C | 39% | 1011.3 hPa | - | - | - | - |
| 1778145994 | 18.89° C | 38% | 1010.9 hPa | - | - | - | - |
| 1778143293 | 18.33° C | 39% | 1010.7 hPa | - | - | - | - |
| 1778140593 | 18.33° C | 39% | 1010.5 hPa | - | - | - | - |
| 1778137893 | 17.78° C | 39% | 1010.3 hPa | - | - | - | - |
* Rain since midnight (hover to see other rain measurements)
** Current wind speed in m/s (hover to see current wind gust speed)